Location: Dallas
(32.7830°N, 96.8000°W)
Time: 03:52:48
(UTC-06:00)

Envisat - Visible Passes

Search period start: 23 February 2018 00:00
Search period end: 05 March 2018 00:00
Orbit: 764 x 766 km, 98.2° (Epoch: 22 February)

Date Brightness Start Highest point End Pass type
(mag) Time Alt. Az. Time Alt. Az. Time Alt. Az.
23 Feb 2.8 19:57:41 10° SSE 20:02:45 80° ENE 20:07:50 10° N visible
24 Feb 3.6 19:21:42 10° SE 19:26:11 33° ENE 19:30:42 10° N visible
24 Feb 5.2 21:01:17 10° SSW 21:05:11 22° W 21:09:07 10° NW visible
25 Feb 4.6 18:47:11 10° E 18:49:50 14° ENE 18:52:29 10° NE visible
25 Feb 3.6 20:23:23 10° S 20:28:19 54° W 20:33:19 10° NNW visible
26 Feb 2.9 19:46:39 10° SSE 19:51:38 62° ENE 19:56:39 10° N visible
26 Feb 5.9 21:29:18 10° WSW 21:30:59 12° W 21:32:40 10° WNW visible
27 Feb 3.9 19:11:00 10° SE 19:15:08 26° ENE 19:19:17 10° NNE visible
27 Feb 4.8 20:49:38 10° SSW 20:53:59 29° W 20:58:22 10° NW visible
28 Feb 3.2 20:12:08 10° S 20:17:11 71° WSW 20:22:15 10° NNW visible
01 Mar 3.2 19:35:43 10° SE 19:40:33 47° ENE 19:45:24 10° N visible
01 Mar 5.7 21:16:47 10° SW 21:19:45 15° W 21:22:42 10° WNW visible
02 Mar 4.2 19:00:27 10° ESE 19:04:07 20° ENE 19:07:46 10° NNE visible
02 Mar 4.3 20:38:08 10° SSW 20:42:48 37° W 20:47:31 10° NNW visible
03 Mar 2.9 20:00:59 10° SSE 20:06:03 88° ENE 20:11:09 10° NNW visible
04 Mar 3.5 19:24:52 10° SE 19:29:29 36° ENE 19:34:06 10° N visible
04 Mar 5.3 21:04:51 10° SW 21:08:31 20° W 21:12:14 10° NW visible
